CZ-6A DEB, 60713

Orbit data source: Space-Track

CZ-6A DEB, 60713 is space debris in LEO originally from a launch on Tue, 06 Aug 2024 UTC launched from the Taiyaun Space Center, China (TSC). Debris objects in space refer to the collection of defunct objects orbiting the Earth. Examples of debris include non-operational satellites, rocket bodies, and fragments generated from explosions, collisions, or faulty payload assembly.

Loading next visibility...
Identifier
60713, 2024-140DS
Orbit
LEO
Country
Flag of CNCN / PRC
Related business
Manufacturer
SAST
Mission
Spacecraft
Bus & Motor
Unknown
Mass
Unknown
Launch date (UTC)
2024-08-06 (2 years ago)
Launch vehicle
Unknown
Launch site
Taiyaun Space Center, China (TSC)
Object type
Payload
Rocket body
Debris
Shape & HBR
Unknown shape, 0.3 m
Radar Cross Section
Medium (>0.1 m² and <1 m²)

Expand to show TLE details & history
Last TLE update: 12 hours ago

TLE from 12 hours ago
0 CZ-6A DEB
1 60713U 24140DS  26171.34933157  .00000152  00000-0  65134-4 0  9991
2 60713  89.0145 275.4698 0049161 155.0265 205.3319 14.19019366 96044
Epoch: 2026-06-20T08:23Z
TLE epoch observation values (Epoch: 2026-06-20T08:23:02.247Z)
Latitude
-0.00003°
Longitude
-118.85479°
Altitude
863.784 km
Speed
7.404 km/s
True Right ascension
18h 21m 52s
True Declination
0° 00' 00"
Sunlit
Object was in full shadow at epoch
Visualization orbit readout
Latitude
Unknown
Longitude
Unknown
Altitude
Unknown
Speed
Unknown
Apparent Right ascension
Unknown
Apparent Declination
Unknown
Sunlit
N/A
Visualization observer readout
Local Sidereal Time
07:19:41
Azimuth
Unknown
Elevation
Unknown
Doppler factor
Unknown
Orbital elements
Apogee altitude
861.038 km
Perigee altitude
790.209 km
Semi-major axis
7,203.761 km
Eccentricity
0.00492
Inclination
89.0145°
RAAN
275.4698°
Arg. of periapsis
155.0265°
True anomaly
205.0922°
Mean anomaly
205.3319°
Eccentric anomaly
205.21192°
Mean motion
3.5498 °/min
Orbital period
101.41 mins
BSTAR
0.000065134
Loading maneuver chart data...
Computing Atmospheric mass density...
Loading historical data...
Loading historical data...
Loading historical data...
Loading historical data...
Loading historical data...
Loading historical data...
Loading historical data...

Documentation

Showing up to 5 results
|